Wind_Speed
56 52 49 46 42 41 43 40 36 30 34 33 26 26 22 35 39 38 40 42 41 38 39 38 35 32 31 28 28 26 27 28 26 25 26 26 25 24 25 27 29 29 30 29
61 56 51 49 46 46 44 45 38 36 34 35 31 25 23 26 29 40 41 42 44 41 41 40 38 36 34 34 32 30 30 30 30 29 29 28 28 28 29 31 32 34 33 32
60 54 50 48 46 46 45 40 40 37 37 37 37 31 29 26 29 29 37 47 47 44 41 41 39 39 39 36 35 36 33 33 33 33 32 32 31 32 33 34 35 36 35 34
57 54 51 48 47 47 45 42 39 37 38 41 41 39 34 30 28 29 33 35 48 47 43 42 41 43 42 39 40 37 36 34 37 37 35 36 35 34 36 36 36 37 36 35
60 55 51 49 45 45 42 41 40 39 37 37 36 41 34 37 34 33 30 30 30 45 42 42 45 46 45 41 38 36 38 38 38 41 39 38 37 37 36 37 37 36 37 37
46 45 48 48 46 46 44 43 44 44 43 43 39 42 38 32 34 36 34 29 27 33 44 44 46 45 43 39 38 38 40 37 40 41 40 39 38 38 35 37 36 38 39 38
64 58 51 50 47 49 50 48 49 47 47 46 41 40 40 35 34 34 30 31 31 28 37 45 42 45 42 38 36 37 37 39 42 42 40 37 37 36 35 40 40 41 40 41
70 67 66 61 57 52 45 44 46 47 47 45 45 41 38 37 36 32 33 34 33 25 31 39 43 40 40 42 39 36 42 40 40 37 35 35 35 38 42 41 42 41 40 42
69 64 61 62 60 55 53 53 46 46 48 47 47 46 40 39 35 32 31 31 31 27 30 28 31 41 42 43 39 40 40 33 33 34 36 37 42 43 38 37 39 41 43 44
66 65 63 58 59 58 56 48 45 46 47 45 41 39 43 41 39 34 33 30 32 29 29 31 30 28 32 37 32 33 35 36 37 38 40 44 40 38 39 41 43 44 45 45
67 65 64 60 58 56 58 60 59 55 49 45 43 37 38 41 37 36 28 26 30 30 26 27 33 35 34 34 35 36 35 35 38 40 39 38 39 40 42 43 45 45 45 47
67 67 68 64 58 55 56 56 48 47 47 41 39 36 37 37 38 29 29 23 26 27 24 22 23 27 32 32 33 33 36 38 38 38 39 41 41 42 45 45 46 46 47 46
66 67 67 67 63 61 61 59 54 50 47 43 44 36 37 37 39 36 27 25 26 28 28 28 28 31 31 33 33 35 38 40 41 42 43 42 44 46 47 46 46 44 42 44
62 65 66 63 58 57 58 55 53 49 51 47 42 33 36 36 38 36 31 30 28 29 31 32 32 34 35 36 39 41 41 43 45 45 45 47 48 46 45 42 42 41 43 45
62 63 61 58 58 59 53 49 45 49 41 47 35 40 38 38 37 38 34 29 30 33 36 35 37 39 42 44 45 47 48 49 47 45 46 47 47 44 43 42 42 43 45 45
62 58 57 56 54 54 54 51 50 48 45 39 37 37 40 44 44 38 42 42 40 38 40 44 49 49 46 47 48 48 48 48 49 49 48 47 44 45 46 43 43 43 42 42
63 63 61 59 57 57 61 48 51 48 51 45 45 35 44 47 47 48 44 42 41 42 45 48 51 52 54 55 53 54 54 54 53 55 54 48 47 43 42 40 39 39 40 39
58 60 60 57 55 61 50 54 51 53 54 54 49 47 50 53 52 51 48 48 48 45 48 51 52 56 57 56 54 53 53 49 50 48 45 44 44 43 40 38 39 37 35 36
53 54 57 60 61 60 57 54 58 59 58 57 56 54 54 56 57 55 48 46 44 43 48 53 58 62 61 55 51 48 44 46 43 41 41 42 41 38 38 38 37 35 36 37
52 48 48 50 52 52 42 56 61 59 58 60 60 57 57 56 59 53 46 43 50 55 54 60 61 59 50 46 43 44 43 42 40 38 40 40 38 38 39 38 38 37 39 39
53 54 55 56 54 54 50 57 58 58 46 52 52 57 53 51 48 50 43 46 51 54 53 55 56 52 44 42 43 42 43 40 40 40 39 37 37 38 38 38 39 40 41 42
47 48 50 54 56 55 55 53 57 47 41 41 44 38 36 43 48 48 47 46 45 42 45 45 42 40 41 41 42 42 40 40 39 38 37 36 36 37 37 38 40 41 44 46
44 48 49 50 49 55 53 43 43 37 41 41 43 43 35 33 34 38 42 36 33 34 34 36 38 40 41 41 41 40 40 38 36 34 35 36 38 39 41 41 43 46 47 49
35 37 45 48 50 46 45 47 41 35 30 36 39 48 44 33 31 31 32 34 35 36 38 41 43 43 44 42 40 39 37 37 39 39 40 41 42 43 45 47 49 51 51 53
32 33 37 42 47 48 48 45 43 37 31 31 36 41 41 45 38 37 37 36 35 35 36 37 39 40 41 42 42 42 43 43 43 44 45 47 48 49 50 51 51 52 54 57
39 33 38 37 33 34 38 41 41 37 36 33 29 34 38 44 44 38 37 39 41 41 42 42 43 44 46 47 47 47 48 48 48 48 48 49 52 54 55 55 56 58 60 60
Wind_Direction
223 224 224 223 218 226 227 229 239 243 248 248 250 246 247 242 227 236 236 237 235 233 234 236 236 238 239 240 239 238 244 248 253 256 262 265 268 275 280 284 287 291 296 298
224 223 224 224 226 227 228 232 234 235 243 247 246 243 254 248 246 238 237 242 242 235 236 239 238 239 239 240 242 243 244 253 256 261 265 270 273 277 282 284 288 293 295 296
228 229 230 230 230 229 233 238 241 238 234 243 249 251 250 249 252 256 249 241 242 240 236 240 241 243 243 244 244 246 247 254 260 262 266 269 272 276 280 284 288 291 293 295
230 231 232 233 234 233 234 237 242 241 239 244 252 254 252 246 255 260 261 264 248 242 234 236 240 242 243 243 245 250 253 253 260 263 264 267 270 275 277 282 286 288 290 296
231 234 234 234 235 236 238 241 242 243 247 249 252 256 246 253 255 264 268 276 270 246 243 240 240 242 245 245 250 254 259 258 259 263 266 270 274 275 279 283 285 287 291 294
224 227 232 234 234 234 232 234 238 239 242 244 245 253 249 256 262 267 269 276 273 251 244 239 244 247 250 250 252 258 258 262 268 267 268 272 274 275 278 283 284 287 291 294
228 227 229 230 231 232 231 229 234 237 241 246 250 255 263 262 268 271 273 268 270 271 248 240 241 247 250 252 254 255 262 265 267 267 270 272 275 277 285 286 288 289 294 295
230 229 231 232 236 239 240 240 242 245 247 251 252 251 257 261 265 270 269 267 271 269 248 239 234 245 252 258 259 261 263 261 264 269 272 275 278 284 286 285 288 292 293 290
229 230 234 236 236 237 238 238 237 242 246 248 252 254 254 261 267 265 262 263 261 260 246 237 235 246 249 254 265 256 262 261 269 275 279 283 283 282 281 283 284 283 284 286
229 228 231 232 232 235 239 239 238 243 245 250 252 259 261 264 274 274 268 260 254 250 242 235 234 239 246 249 246 254 264 267 272 277 278 276 276 278 280 278 279 281 281 284
225 227 228 228 229 234 237 239 241 246 248 250 258 262 266 258 261 268 265 257 257 257 253 248 242 243 243 246 254 266 272 272 270 268 268 271 272 273 275 275 276 279 284 286
222 224 227 230 231 232 236 241 242 246 248 248 255 252 262 261 265 267 261 252 251 248 250 246 241 239 245 250 251 255 261 262 263 264 265 266 269 271 272 275 279 284 285 289
223 226 227 228 229 230 235 238 241 244 242 245 248 254 251 257 263 268 263 246 240 240 236 234 234 234 241 245 247 251 253 254 257 259 263 267 268 270 274 280 283 285 289 293
227 229 231 233 235 239 240 244 242 239 243 248 250 260 262 260 266 265 255 246 239 240 245 239 242 242 240 245 249 250 254 257 259 262 266 268 272 276 278 279 284 289 292 295
227 231 233 234 236 238 237 237 241 246 247 245 246 252 259 264 258 257 256 233 232 238 240 244 245 244 244 246 248 251 255 258 262 265 269 272 274 274 279 284 287 290 292 291
230 230 232 236 237 241 242 240 237 239 237 241 244 242 243 241 243 241 246 236 240 234 239 242 244 246 251 253 255 257 259 263 265 270 272 273 274 279 284 284 286 286 287 289
230 229 231 235 236 237 240 237 237 236 239 239 246 253 252 249 248 248 241 246 246 243 239 243 245 245 246 248 250 257 263 264 268 271 272 271 278 279 279 280 279 282 287 291
228 232 237 240 241 242 245 239 242 240 242 242 239 242 247 249 250 248 245 237 243 244 245 248 251 255 254 256 261 263 265 267 265 266 271 273 273 276 274 274 279 285 288 290
221 222 228 233 239 243 243 246 245 245 242 246 247 246 247 250 253 250 250 250 249 253 253 250 250 251 253 254 259 261 259 262 265 267 270 272 271 271 271 275 277 280 283 286
219 222 229 233 237 242 243 242 245 244 247 247 248 249 247 251 251 247 253 252 253 250 248 251 253 255 260 257 255 257 260 262 264 264 262 264 268 271 272 274 277 279 282 284
221 221 227 233 239 247 242 245 240 246 254 250 251 249 251 248 252 252 250 249 249 249 250 252 254 258 257 253 258 259 258 260 259 261 263 266 269 272 275 278 280 284 286 287
228 230 236 236 242 248 242 243 246 247 258 255 250 256 247 254 251 250 251 248 249 249 248 247 247 250 255 256 256 258 259 259 260 265 271 274 275 277 281 285 287 290 291 289
226 234 237 242 251 252 256 260 257 258 253 250 249 242 240 251 247 243 240 239 231 237 241 244 247 250 255 257 258 261 262 265 266 268 269 271 275 279 283 285 287 288 287 286
228 232 235 234 237 236 243 245 242 240 250 246 245 240 236 228 223 220 228 235 239 243 244 246 249 253 254 255 255 256 259 263 265 268 271 274 278 282 285 286 287 286 286 286
229 229 232 233 233 235 239 247 248 250 252 233 233 227 222 223 223 223 227 236 241 243 245 247 249 252 255 257 259 261 263 263 264 268 272 276 279 281 282 282 284 286 287 285
227 228 231 233 238 242 242 244 245 243 240 226 220 225 226 226 233 240 242 244 248 251 252 253 254 255 257 258 260 263 267 269 272 274 275 279 282 284 285 286 287 288 286 284
Height
5756 5764 5770 5778 5782 5789 5794 5799 5805 5809 5810 5813 5816 5819 5823 5826 5830 5835 5840 5843 5847 5852 5853 5855 5858 5861 5863 5865 5866 5867 5869 5869 5871 5872 5873 5873 5874 5874 5873 5872 5870 5868 5868 5867
5747 5755 5764 5771 5776 5782 5788 5792 5799 5802 5805 5807 5812 5816 5818 5820 5825 5829 5831 5834 5840 5844 5847 5849 5852 5854 5858 5858 5861 5863 5862 5864 5866 5867 5867 5868 5868 5867 5866 5865 5863 5862 5861 5860
5742 5753 5761 5767 5771 5776 5781 5787 5792 5797 5799 5801 5804 5808 5813 5817 5820 5822 5824 5825 5829 5835 5839 5842 5847 5849 5849 5853 5855 5856 5857 5859 5860 5860 5861 5861 5862 5861 5860 5858 5857 5855 5854 5853
5732 5742 5751 5759 5765 5770 5774 5780 5784 5788 5792 5795 5798 5800 5807 5812 5814 5815 5817 5818 5822 5826 5830 5834 5838 5839 5841 5845 5845 5850 5852 5853 5854 5855 5856 5855 5856 5855 5853 5852 5851 5849 5848 5847
5729 5735 5744 5750 5760 5764 5769 5773 5778 5781 5784 5789 5792 5791 5799 5802 5805 5808 5812 5814 5816 5819 5824 5828 5829 5830 5832 5837 5840 5843 5845 5846 5846 5848 5849 5849 5849 5847 5845 5845 5843 5843 5841 5839
5716 5726 5734 5744 5749 5754 5760 5764 5767 5771 5774 5779 5784 5784 5791 5798 5800 5801 5804 5807 5808 5809 5813 5819 5822 5824 5827 5830 5832 5833 5835 5836 5838 5838 5839 5841 5840 5838 5837 5836 5835 5834 5832 5830
5709 5717 5726 5733 5738 5743 5748 5751 5756 5762 5765 5772 5778 5781 5784 5791 5794 5795 5795 5797 5799 5800 5802 5808 5814 5818 5820 5823 5825 5826 5828 5829 5830 5830 5831 5831 5831 5831 5829 5828 5827 5825 5823 5821
5701 5707 5718 5726 5731 5740 5743 5748 5755 5757 5762 5768 5770 5775 5778 5783 5787 5788 5788 5788 5790 5792 5795 5798 5804 5809 5811 5815 5817 5819 5822 5822 5822 5822 5822 5823 5823 5823 5821 5820 5818 5817 5814 5811
5692 5699 5709 5716 5722 5727 5733 5738 5744 5748 5752 5758 5763 5768 5772 5774 5777 5778 5781 5781 5783 5785 5787 5790 5794 5799 5801 5807 5809 5810 5813 5813 5814 5814 5814 5814 5815 5814 5813 5811 5809 5807 5804 5802
5683 5688 5696 5702 5707 5713 5724 5732 5734 5740 5744 5748 5754 5759 5763 5767 5767 5770 5772 5773 5773 5774 5779 5782 5785 5789 5795 5798 5800 5802 5804 5805 5805 5804 5805 5806 5806 5805 5803 5801 5799 5797 5795 5792
5668 5678 5684 5688 5695 5706 5711 5716 5723 5730 5735 5741 5745 5752 5754 5757 5761 5762 5763 5765 5767 5769 5771 5774 5778 5782 5785 5788 5790 5792 5794 5795 5796 5796 5796 5796 5795 5793 5793 5792 5790 5787 5785 5783
5655 5663 5670 5680 5689 5696 5701 5709 5713 5717 5726 5731 5736 5744 5744 5747 5749 5753 5755 5757 5760 5763 5765 5768 5771 5774 5777 5778 5780 5783 5785 5785 5786 5787 5786 5786 5784 5783 5782 5781 5780 5777 5775 5772
5647 5652 5658 5666 5675 5682 5688 5696 5704 5708 5712 5719 5723 5737 5737 5738 5741 5745 5749 5750 5753 5756 5758 5760 5762 5765 5767 5769 5771 5772 5774 5774 5775 5775 5776 5775 5773 5773 5773 5771 5770 5766 5764 5761
5640 5643 5649 5659 5670 5677 5682 5688 5693 5696 5701 5711 5717 5727 5728 5732 5735 5739 5742 5744 5747 5749 5751 5753 5755 5756 5758 5760 5761 5762 5762 5763 5765 5765 5764 5764 5764 5763 5762 5759 5757 5755 5751 5748
5627 5633 5642 5650 5656 5661 5668 5675 5680 5685 5698 5695 5716 5712 5717 5719 5726 5727 5729 5734 5738 5742 5744 5745 5746 5748 5749 5749 5749 5750 5752 5754 5754 5754 5754 5754 5753 5751 5748 5747 5745 5743 5740 5737
5614 5622 5632 5638 5645 5650 5654 5661 5669 5677 5682 5688 5694 5698 5702 5705 5707 5716 5721 5724 5728 5732 5733 5734 5736 5737 5737 5737 5738 5739 5740 5741 5742 5743 5741 5740 5739 5738 5737 5736 5734 5731 5728 5726
5605 5611 5618 5626 5632 5636 5635 5658 5658 5668 5669 5678 5679 5693 5689 5692 5697 5701 5708 5710 5716 5720 5721 5722 5723 5724 5723 5724 5724 5726 5727 5728 5729 5729 5730 5729 5728 5726 5725 5723 5721 5719 5717 5715
5596 5605 5611 5617 5622 5620 5644 5643 5651 5654 5660 5666 5668 5670 5673 5675 5681 5685 5689 5697 5704 5705 5707 5710 5711 5711 5710 5709 5712 5714 5715 5715 5716 5717 5718 5717 5715 5714 5713 5712 5710 5709 5707 5705
5585 5591 5597 5602 5606 5618 5629 5637 5638 5640 5651 5653 5656 5657 5657 5662 5663 5672 5677 5684 5689 5693 5693 5693 5692 5692 5695 5698 5701 5703 5704 5705 5706 5706 5706 5704 5702 5702 5702 5700 5699 5698 5696 5694
5578 5584 5590 5595 5598 5604 5627 5622 5624 5627 5635 5640 5644 5644 5643 5646 5645 5660 5667 5669 5673 5674 5673 5674 5675 5679 5685 5686 5688 5691 5693 5694 5694 5693 5691 5690 5691 5691 5690 5688 5687 5685 5684 5681
5569 5574 5576 5583 5588 5598 5603 5607 5612 5612 5631 5626 5630 5630 5631 5629 5638 5644 5649 5652 5654 5657 5658 5661 5665 5668 5672 5674 5676 5678 5679 5681 5680 5679 5679 5679 5679 5678 5677 5676 5675 5673 5672 5670
5562 5564 5568 5575 5581 5586 5589 5591 5594 5608 5611 5618 5620 5623 5620 5622 5624 5629 5633 5638 5641 5642 5647 5651 5653 5657 5660 5662 5664 5666 5668 5667 5667 5667 5668 5668 5667 5666 5665 5665 5664 5662 5661 5659
5548 5551 5560 5567 5574 5579 5579 5587 5593 5596 5598 5601 5606 5611 5610 5613 5616 5620 5623 5626 5629 5633 5636 5639 5643 5645 5647 5650 5652 5654 5655 5656 5655 5656 5656 5655 5655 5654 5654 5652 5651 5649 5647 5645
5542 5550 5552 5557 5563 5567 5571 5575 5581 5583 5584 5585 5590 5597 5602 5604 5607 5609 5612 5616 5620 5623 5627 5630 5632 5634 5636 5638 5640 5641 5642 5643 5644 5644 5644 5643 5643 5642 5641 5640 5638 5636 5633 5630
5537 5542 5546 5550 5552 5559 5563 5566 5571 5572 5576 5578 5582 5584 5586 5592 5597 5599 5602 5606 5610 5613 5616 5619 5621 5623 5625 5627 5628 5629 5630 5630 5630 5631 5631 5631 5630 5629 5627 5626 5623 5620 5617 5615
5526 5532 5536 5541 5545 5548 5552 5553 5556 5561 5566 5571 5572 5576 5580 5584 5588 5590 5593 5597 5600 5602 5605 5607 5609 5610 5612 5613 5615 5616 5617 5618 5618 5618 5617 5616 5616 5615 5613 5610 5608 5605 5602 5599